This is the latest recevied weather packets stored in our database for station/object NY3Q. If no packets are shown the sender has not sent any weather packets the latest 10 day(s).
| Time | Temp. | Humidity | Pressure | Rain* | Wind** | Luminosity | Snow |
|---|---|---|---|---|---|---|---|
| 1778088557 | 32.78° C | 46% | 1016.8 hPa | 0 mm | - | 605 W/m² | - |
| 1778088254 | 32.78° C | 47% | 1016.5 hPa | 0 mm | - | 588 W/m² | - |
| 1778087951 | 32.78° C | 48% | 1017 hPa | 0 mm | - | 609 W/m² | - |
| 1778087648 | 32.78° C | 49% | 1016.9 hPa | 0 mm | - | 610 W/m² | - |
| 1778087347 | 32.78° C | 48% | 1017 hPa | 0 mm | - | 520 W/m² | - |
| 1778087042 | 32.78° C | 47% | 1017 hPa | 0 mm | - | 580 W/m² | - |
| 1778086741 | 32.78° C | 49% | 1017.2 hPa | 0 mm | - | 594 W/m² | - |
| 1778086439 | 32.22° C | 48% | 1017.3 hPa | 0 mm | - | 574 W/m² | - |
| 1778086135 | 32.22° C | 51% | 1017.4 hPa | 0 mm | - | 607 W/m² | - |
| 1778085831 | 31.67° C | 50% | 1017.4 hPa | 0 mm | - | 549 W/m² | - |
| 1778085529 | 32.22° C | 49% | 1017.3 hPa | 0 mm | - | 512 W/m² | - |
| 1778085223 | 32.22° C | 48% | 1017.4 hPa | 0 mm | - | 470 W/m² | - |
| 1778084919 | 32.22° C | 50% | 1017.2 hPa | 0 mm | - | 577 W/m² | - |
| 1778084617 | 32.22° C | 49% | 1017.1 hPa | 0 mm | - | 650 W/m² | - |
| 1778084315 | 32.22° C | 51% | 1017.5 hPa | 0 mm | - | 613 W/m² | - |
| 1778084012 | 31.67° C | 53% | 1017.5 hPa | 0 mm | - | 560 W/m² | - |
| 1778083710 | 31.11° C | 53% | 1017.6 hPa | 0 mm | - | 562 W/m² | - |
| 1778083406 | 30.56° C | 54% | 1017.6 hPa | 0 mm | - | 579 W/m² | - |
| 1778083105 | 30.56° C | 54% | 1017.5 hPa | 0 mm | - | 610 W/m² | - |
| 1778082801 | 30.56° C | 52% | 1017.5 hPa | 0 mm | - | 592 W/m² | - |
| 1778081673 | 30° C | 55% | 1017.5 hPa | 0 mm | - | 559 W/m² | - |
| 1778081371 | 30° C | 55% | 1017.5 hPa | 0 mm | - | 550 W/m² | - |
| 1778081067 | 30° C | 55% | 1017.7 hPa | 0 mm | - | 532 W/m² | - |
| 1778080766 | 30° C | 54% | 1017.4 hPa | 0 mm | - | 532 W/m² | - |
| 1778080463 | 30° C | 54% | 1017.5 hPa | 0 mm | - | 470 W/m² | - |
* Rain latest hour (hover to see other rain measurements)
** Current wind speed in m/s (hover to see current wind gust speed)